Stündliche Wetter Dortmund

Heute, 1 August, Sonntag

Zeit Temperatur Niederschläge Wind Luftdruck Luftfeuchtigkeit
00:00 +14°C° 0 mm 1 m/S 749 mmHg 95%
01:00 +14°C° 0 mm 2 m/S 748 mmHg 96%
02:00 +14°C° 0 mm 2 m/S 748 mmHg 97%
03:00 +14°C° 0 mm 2 m/S 748 mmHg 97%
04:00 +14°C° 0 mm 2 m/S 748 mmHg 96%
05:00 +15°C° 0 mm 2 m/S 748 mmHg 94%
06:00 +14°C° 0 mm 3 m/S 748 mmHg 92%
07:00 +16°C° 0 mm 3 m/S 748 mmHg 84%
08:00 +18°C° 0 mm 3 m/S 748 mmHg 75%
09:00 +19°C° 0 mm 4 m/S 748 mmHg 66%
10:00 +20°C° 0.1 mm 4 m/S 748 mmHg 61%
11:00 +21°C° 0.1 mm 4 m/S 748 mmHg 56%
12:00 +22°C° 0.1 mm 4 m/S 748 mmHg 51%
13:00 +22°C° 0.5 mm 4 m/S 748 mmHg 58%
14:00 +21°C° 0.5 mm 4 m/S 748 mmHg 64%
15:00 +20°C° 0.5 mm 4 m/S 748 mmHg 71%
16:00 +19°C° 1.1 mm 3 m/S 748 mmHg 76%
17:00 +19°C° 1.1 mm 3 m/S 748 mmHg 81%
18:00 +18°C° 1.1 mm 3 m/S 748 mmHg 86%
19:00 +17°C° 0.4 mm 2 m/S 749 mmHg 89%
20:00 +16°C° 0.4 mm 2 m/S 749 mmHg 92%
21:00 +15°C° 0.4 mm 1 m/S 750 mmHg 95%
22:00 +15°C° 0.1 mm 1 m/S 750 mmHg 95%
23:00 +14°C° 0.1 mm 1 m/S 750 mmHg 95%

Morgen, 2 August, Montag

Zeit Temperatur Niederschläge Wind Luftdruck Luftfeuchtigkeit
00:00 +14°C° 0.1 mm 1 m/S 750 mmHg 96%
01:00 +13°C° 0 mm 1 m/S 750 mmHg 95%
02:00 +13°C° 0 mm 1 m/S 751 mmHg 95%
03:00 +13°C° 0 mm 1 m/S 751 mmHg 95%
04:00 +13°C° 0 mm 1 m/S 751 mmHg 93%
05:00 +14°C° 0 mm 2 m/S 752 mmHg 91%
06:00 +14°C° 0 mm 2 m/S 752 mmHg 89%
07:00 +15°C° 0 mm 2 m/S 752 mmHg 80%
08:00 +17°C° 0 mm 2 m/S 752 mmHg 71%
09:00 +18°C° 0 mm 3 m/S 752 mmHg 61%
10:00 +19°C° 0 mm 3 m/S 752 mmHg 57%
11:00 +20°C° 0 mm 3 m/S 752 mmHg 53%
12:00 +20°C° 0 mm 3 m/S 752 mmHg 49%
13:00 +20°C° 0 mm 3 m/S 752 mmHg 52%
14:00 +20°C° 0 mm 3 m/S 752 mmHg 54%
15:00 +20°C° 0 mm 3 m/S 752 mmHg 56%
16:00 +19°C° 0 mm 2 m/S 752 mmHg 59%
17:00 +19°C° 0 mm 2 m/S 752 mmHg 62%
18:00 +19°C° 0 mm 2 m/S 752 mmHg 65%
19:00 +18°C° 0 mm 1 m/S 752 mmHg 69%
20:00 +16°C° 0 mm 1 m/S 752 mmHg 73%
21:00 +14°C° 0 mm 0 m/S 752 mmHg 77%
22:00 +15°C° 0 mm 1 m/S 752 mmHg 77%
23:00 +14°C° 0 mm 1 m/S 752 mmHg 77%

übermorgen, 3 August, Dienstag

Zeit Temperatur Niederschläge Wind Luftdruck Luftfeuchtigkeit
00:00 +14°C° 0 mm 1 m/S 752 mmHg 78%
01:00 +14°C° 0.1 mm 1 m/S 752 mmHg 79%
02:00 +14°C° 0.1 mm 1 m/S 751 mmHg 81%
03:00 +14°C° 0.1 mm 1 m/S 751 mmHg 82%
04:00 +14°C° 0.6 mm 1 m/S 751 mmHg 86%
05:00 +14°C° 0.6 mm 1 m/S 751 mmHg 89%
06:00 +13°C° 0.6 mm 0 m/S 751 mmHg 93%
07:00 +13°C° 1.1 mm 0 m/S 751 mmHg 93%
08:00 +15°C° 1.1 mm 1 m/S 751 mmHg 93%
09:00 +15°C° 1.1 mm 1 m/S 751 mmHg 93%
10:00 +15°C° 0.5 mm 1 m/S 751 mmHg 92%
11:00 +16°C° 0.5 mm 1 m/S 751 mmHg 91%
12:00 +16°C° 0.5 mm 1 m/S 751 mmHg 90%
13:00 +16°C° 0.2 mm 1 m/S 751 mmHg 88%
14:00 +16°C° 0.2 mm 1 m/S 751 mmHg 87%
15:00 +18°C° 0.2 mm 1 m/S 751 mmHg 85%
16:00 +18°C° 0.1 mm 1 m/S 751 mmHg 86%
17:00 +18°C° 0.1 mm 1 m/S 751 mmHg 86%
18:00 +16°C° 0.1 mm 0 m/S 751 mmHg 87%
19:00 +16°C° 0 mm 1 m/S 751 mmHg 89%
20:00 +15°C° 0 mm 1 m/S 752 mmHg 91%
21:00 +14°C° 0 mm 1 m/S 752 mmHg 93%
22:00 +14°C° 0 mm 1 m/S 752 mmHg 94%
23:00 +14°C° 0 mm 1 m/S 752 mmHg 94%

4 August, Mittwoch

Zeit Temperatur Niederschläge Wind Luftdruck Luftfeuchtigkeit
00:00 +14°C° 0 mm 1 m/S 752 mmHg 94%
01:00 +13°C° 0 mm 1 m/S 752 mmHg 94%
02:00 +13°C° 0 mm 1 m/S 751 mmHg 94%
03:00 +13°C° 0 mm 1 m/S 751 mmHg 94%
04:00 +13°C° 0 mm 1 m/S 751 mmHg 93%
05:00 +14°C° 0 mm 1 m/S 751 mmHg 91%
06:00 +14°C° 0 mm 1 m/S 751 mmHg 90%
07:00 +15°C° 0.1 mm 1 m/S 752 mmHg 87%
08:00 +16°C° 0.1 mm 1 m/S 752 mmHg 84%
09:00 +18°C° 0.1 mm 1 m/S 752 mmHg 81%
10:00 +18°C° 0.2 mm 1 m/S 752 mmHg 78%
11:00 +19°C° 0.2 mm 1 m/S 752 mmHg 75%
12:00 +20°C° 0.2 mm 1 m/S 752 mmHg 72%
13:00 +20°C° 0.3 mm 1 m/S 752 mmHg 72%
14:00 +20°C° 0.3 mm 1 m/S 752 mmHg 72%
15:00 +20°C° 0.3 mm 1 m/S 752 mmHg 73%
16:00 +19°C° 0.5 mm 1 m/S 752 mmHg 77%
17:00 +19°C° 0.5 mm 1 m/S 752 mmHg 81%
18:00 +18°C° 0.5 mm 1 m/S 752 mmHg 85%
19:00 +16°C° 0.2 mm 1 m/S 752 mmHg 87%
20:00 +16°C° 0.2 mm 1 m/S 752 mmHg 88%
21:00 +15°C° 0.2 mm 1 m/S 752 mmHg 90%
22:00 +15°C° 0 mm 1 m/S 752 mmHg 91%
23:00 +14°C° 0 mm 1 m/S 752 mmHg 92%

5 August, Donnerstag

Zeit Temperatur Niederschläge Wind Luftdruck Luftfeuchtigkeit
00:00 +14°C° 0 mm 1 m/S 752 mmHg 93%
01:00 +14°C° 0 mm 1 m/S 752 mmHg 94%
02:00 +13°C° 0 mm 1 m/S 751 mmHg 95%
03:00 +13°C° 0 mm 1 m/S 751 mmHg 95%
04:00 +13°C° 0 mm 1 m/S 751 mmHg 93%
05:00 +14°C° 0 mm 2 m/S 751 mmHg 91%
06:00 +15°C° 0 mm 2 m/S 751 mmHg 89%
07:00 +16°C° 0 mm 2 m/S 751 mmHg 81%
08:00 +18°C° 0 mm 2 m/S 751 mmHg 74%
09:00 +20°C° 0 mm 2 m/S 750 mmHg 66%
10:00 +20°C° 0.2 mm 2 m/S 750 mmHg 62%
11:00 +21°C° 0.2 mm 3 m/S 750 mmHg 58%
12:00 +22°C° 0.2 mm 3 m/S 749 mmHg 54%
13:00 +22°C° 0 mm 3 m/S 749 mmHg 52%
14:00 +24°C° 0 mm 3 m/S 749 mmHg 49%
15:00 +24°C° 0 mm 3 m/S 748 mmHg 47%
16:00 +23°C° 0 mm 2 m/S 748 mmHg 53%
17:00 +21°C° 0 mm 2 m/S 748 mmHg 59%
18:00 +21°C° 0 mm 1 m/S 748 mmHg 66%
19:00 +19°C° 0.2 mm 2 m/S 748 mmHg 73%
20:00 +18°C° 0.2 mm 2 m/S 748 mmHg 81%
21:00 +17°C° 0.2 mm 2 m/S 748 mmHg 89%
22:00 +17°C° 0.1 mm 2 m/S 748 mmHg 90%
23:00 +16°C° 0.1 mm 2 m/S 748 mmHg 91%

6 August, Freitag

Zeit Temperatur Niederschläge Wind Luftdruck Luftfeuchtigkeit
00:00 +16°C° 0.1 mm 3 m/S 747 mmHg 92%
01:00 +16°C° 0 mm 3 m/S 747 mmHg 92%
02:00 +14°C° 0 mm 3 m/S 747 mmHg 93%
03:00 +14°C° 0 mm 3 m/S 747 mmHg 93%
04:00 +14°C° 0 mm 3 m/S 747 mmHg 90%
05:00 +14°C° 0 mm 4 m/S 747 mmHg 88%
06:00 +15°C° 0 mm 4 m/S 748 mmHg 85%
07:00 +15°C° 0 mm 4 m/S 748 mmHg 81%
08:00 +16°C° 0 mm 5 m/S 748 mmHg 76%
09:00 +17°C° 0 mm 5 m/S 748 mmHg 71%
10:00 +19°C° 0 mm 5 m/S 748 mmHg 67%
11:00 +20°C° 0 mm 5 m/S 748 mmHg 62%
12:00 +21°C° 0 mm 5 m/S 748 mmHg 57%
13:00 +21°C° 0 mm 5 m/S 748 mmHg 57%
14:00 +21°C° 0 mm 4 m/S 747 mmHg 57%
15:00 +21°C° 0 mm 4 m/S 747 mmHg 57%
16:00 +20°C° 0 mm 3 m/S 747 mmHg 60%
17:00 +20°C° 0 mm 3 m/S 747 mmHg 63%
18:00 +19°C° 0 mm 3 m/S 747 mmHg 65%
19:00 +18°C° 0 mm 3 m/S 747 mmHg 69%
20:00 +17°C° 0 mm 2 m/S 747 mmHg 73%
21:00 +16°C° 0 mm 2 m/S 748 mmHg 77%
22:00 +16°C° 0 mm 2 m/S 747 mmHg 79%
23:00 +15°C° 0 mm 2 m/S 747 mmHg 81%
Mehr zeigen

Wir brauchen deine Erlaubnis

Meteoprog und unser Service Anbieter werden persönliche Daten aufbewahren, so wie Cookies, Geräte Bezeichnung oder ähnliche Technologien von deinem Gerät und Prozess, so wie Persönliche Daten Inhalte und Werbungen, genauso wie social Media und den Verkehr zu analysieren.

  • Aufbewahrung und/oder Zugang zu deiner Geräte Informationen.

    Cookies, Geräte Bezeichnung oder andere Informationen, können aufbewahrt oder Zugang zu deinem Gerät erhalten, für den Grund, der oben angegeben wird.

  • Personalisierte Werbung und Inhalte, Messungen, Einblick in das Publikum und Produkt Entwicklung.

    Werbungen und Inhalte können personalisiert werden, basierend auf ein Profil. Mehr Daten können besser personalisierte Werbungen und Inhalte hinzufügen. Werbung und Inhalte können gezeigt und gemessen werden. Einblicke über das Publikum, welche die Werbung gesehen haben und den Inhalt, können abgeleitet werden. So wie Daten können genutzt werden, um es zu verbessern oder die Benutzer Erfahrung zu verbessern das System und die Software.

Wenn du “Ich stimme zu” klickst, erlaubst du uns, die Cookies zu benutzen die Geräte Bezeichnung, den Web oder ähnliche Technologien zu benutzen. Deine Settings, können in deinem Gerät bei deinem Browser geändert werden.

Für den bestimmten Zweck, berechtigten Interessen beruhen darauf, mehr als auf den Inhalt. Du kannst mehr darüber in unseren Privaten und Cookie Politik lesen.